This is the latest recevied weather packets stored in our database for station/object LA5PPA-1. If no packets are shown the sender has not sent any weather packets the latest 1 day(s).
| Time | Temp. | Humidity | Pressure | Rain* | Wind** | Luminosity | Snow |
|---|---|---|---|---|---|---|---|
| 1777979216 | 0.56° C | 48% | 1013.9 hPa | 0 mm | 2.24 m/s, 289° | - | - |
| 1777978916 | 0° C | 45% | 1013.9 hPa | 0 mm | 2.24 m/s, 303° | - | - |
| 1777978616 | 0° C | 47% | 1013.9 hPa | 0 mm | 1.79 m/s, 291° | - | - |
| 1777978557 | 0° C | 51% | 1013.9 hPa | 0 mm | 0.45 m/s, 320° | - | - |
| 1777978316 | -0.56° C | 49% | 1013.9 hPa | 0 mm | 2.68 m/s, 324° | - | - |
| 1777978016 | -1.11° C | 50% | 1013.9 hPa | 0 mm | 1.79 m/s, 286° | - | - |
| 1777977897 | -1.11° C | 48% | 1013.9 hPa | 0 mm | 3.58 m/s, 295° | - | - |
| 1777977716 | -0.56° C | 49% | 1013.9 hPa | 0 mm | 2.68 m/s, 338° | - | - |
| 1777977416 | -0.56° C | 50% | 1013.8 hPa | 0 mm | 0 m/s | - | - |
| 1777977237 | -0.56° C | 48% | 1013.9 hPa | 0 mm | 1.34 m/s, 295° | - | - |
| 1777977116 | -0.56° C | 47% | 1013.8 hPa | 0 mm | 2.24 m/s, 293° | - | - |
| 1777976816 | -0.56° C | 47% | 1013.9 hPa | 0 mm | 4.47 m/s, 303° | - | - |
| 1777976577 | 0° C | 47% | 1013.8 hPa | 0 mm | 4.02 m/s, 278° | - | - |
| 1777976516 | 0° C | 48% | 1013.7 hPa | 0 mm | 4.02 m/s, 279° | - | - |
| 1777976216 | -0.56° C | 49% | 1013.8 hPa | 0 mm | 1.34 m/s, 307° | - | - |
| 1777975916 | -0.56° C | 49% | 1013.8 hPa | 0 mm | 4.02 m/s, 306° | - | - |
| 1777975616 | 0° C | 47% | 1013.7 hPa | 0 mm | 5.36 m/s, 306° | - | - |
| 1777975316 | 0° C | 47% | 1013.6 hPa | 0 mm | 0.89 m/s, 261° | - | - |
| 1777975257 | 0° C | 47% | 1013.7 hPa | 0 mm | 2.68 m/s, 303° | - | - |
| 1777975016 | 0° C | 50% | 1013.6 hPa | 0 mm | 0 m/s | - | - |
| 1777974716 | -0.56° C | 48% | 1013.6 hPa | 0 mm | 1.34 m/s, 293° | - | - |
| 1777974597 | 0° C | 49% | 1013.5 hPa | 0 mm | 1.34 m/s, 315° | - | - |
| 1777974416 | 0° C | 46% | 1013.6 hPa | 0 mm | 1.79 m/s, 319° | - | - |
| 1777974116 | -0.56° C | 49% | 1013.6 hPa | 0 mm | 0 m/s | - | - |
| 1777973937 | -0.56° C | 49% | 1013.6 hPa | 0 mm | 0.89 m/s, 295° | - | - |
* Rain latest hour (hover to see other rain measurements)
** Current wind speed in m/s (hover to see current wind gust speed)